Погода в Астане

Погода в Астане : погода сейчас, прогноз погоды и архив. Всё, что Вы хотите узнать о погоде в Астане!

Хотите узнать прогноз погоды Астана? Тогда Вам сюда: Погода Астана

Поиск расширенной информации на нашем сайте:

Другие новости

Новости СМИ2

Главная страница сайта

Новости сайта

03.07.2017

Напоминаем, что на нашем специализированном сайте Метеоцентр.Азия вы можете получить высокодетализированные автоматические прогнозы погоды по пунктам России, СНГ и мира в авиационном формате (включающие направление и скорость ветра, видимость, явления погоды, количество и форму облачности, нижнюю и верхнюю границу облачности).


Погода в Астане - сегодня

Время (UTC), дата Ветер
(°,м/с) 
Видим.   Явления Облачность Т
(°С)
Тd
(°С)
f(%) Тe
(°С)
Pmin
(гПа)
dP
(гПа)
Po
(мм)
O2
(г/м3)
Тmin Tmax R s Состояние
почвы
03 20.09.17 200 (Ю) 10 км    4/0 средняя, верхняя 
[Ac trans|Ci fib]
+10.4 +2.5 58 +12  1025.7  738  286           
06 20.09.17 210 (ЮЗ) 10 км    4/0 средняя 
[Ac lent]
+18.7 +4.5 39 +19  1023.2  -1.2  737  277  +5.1         
09 20.09.17 250 (З) 10 км    3/0 верхняя 
[Ci fib]
+24.5 +6.3 31 +25  1020.4  -1.9  735  271           
12 20.09.17 280 (З) 10 км    4/0 верхняя 
[Ci fib]
+25.5 +5.7 28 +26  1018.8  -1.4  734  270           
15 20.09.17 230 (ЮЗ) н/о    ясно 
+19.6 +6 41 +21  1019.6  734  275    +26.2       
18 20.09.17 210 (ЮЗ) н/о    ясно 
+17 +6.2 49 +18  1018.4  -1.5  733  277    +26.2       
21 20.09.17 тихо ()   н/о    ясно 
+14.1 +6.2 59 +14  1017.5  -1.3  732  280           
00 21.09.17 210 (ЮЗ) н/о    ясно 
+13 +6.1 63 +14  1016.5  -1.1  731  280           
03 21.09.17 210 (ЮЗ) 10 км    3/0 средняя 
[Ac cast]
+15.3 +6.3 55 +17  1015.7  -0.4  731  278           
06 21.09.17 270 (З) 10 км    8/4 1000 м средняя 
[Sc|Ac As]
+22.5 +5.9 34 +23  1013.6  -1.1  730  271  +12.7         
09 21.09.17 280 (З) 10 км    8/3 1000 м средняя, верхняя 
[Sc|Ac cast|Cc]
+21.8 +6.1 36 +22  1012.9  -0.8  730  271           
12 21.09.17 350 (С) 10 км    9/0 средняя, верхняя 
[Ac und|Ci fib]
+21.7 +5.6 35 +22  1013.2  0.3  730  272           
15 21.09.17 040 (СВ) н/о    8/0 средняя 
[Ac trans]
+16.8 +3.8 42 +18  1014.9  731  277    +24       
18 21.09.17 050 (СВ) н/о    6/0 средняя 
[Ac trans]
+13.5 +5.2 57 +15  1016.3  0.9  731  280    +24       
21 21.09.17 030 (СВ) н/о    3/0 средняя 
[As op]
+11.3 +6.6 73 +11  1017.6  0.9  732  282           
00 22.09.17 030 (СВ) н/о    10/0 верхняя 
[Sc|Ci fib]
+9.1 +6.9 86 +8  1018.7  0.8  733  284           
03 22.09.17 040 (СВ) 10 км    10/10 800 м 
[Sc]
+8.1 +4.1 76 +7  1020  733  286           
06 22.09.17 040 (СВ) 10 км    10/10 630 м 
[Sc]
+7.9 +2.8 70 +7  1020.7  0.7  734  287  +7.8         
09 22.09.17 040 (СВ) 10 км    10/10 1230 м 
[Sc]
+9.7 +1.4 56 +9  1020  -0.5  734  285           
12 22.09.17 020 (С) 10 км    9/9 1500 м 
[Sc]
+10.4 -0.1 48 +10  1020  0.1  734  285           
15 22.09.17 020 (С) н/о    9/9 1500 м 
[Sc]
+8.2 -1.6 50 +8  1021.5  1.1  734  287    +11.2       
18 22.09.17 010 (С) н/о    8/8 1500 м 
[Sc]
+5.2 -1.7 61 +6  1022.3  0.4  735  291    +11.2       
21 22.09.17 020 (С) н/о    10/10 870 м 
[Sc]
+4.9 +1.9 81 +4  1022.1  -0.2  735  290           
03 23.09.17 010 (С) 10 км    10/10 630 м 
[Sc]
+0.4 -5 67 -2  1026.6  1.8  737  297           
06 23.09.17 360 (С) 4000 м  снежные зёрна  10/10 600 м кучево-дожд. 
[Cb cap]
+1 -6.3 58 -1  1027.7  1.2  738  297  +0         
Время (UTC), дата Ветер
(°,м/с) 
Видим.   Явления Облачность Т
(°С)
Тd
(°С)
f(%) Тe
(°С)
Pmin
(гПа)
dP
(гПа)
Po
(мм)
O2
(г/м3)
Тmin Tmax R s Состояние
почвы

Для получения пояснительной информации подведите курсор к названию столбца.

ПОГОДА в Астане - архив

Всё, что Вы хотите узнать о погоде в Астане - удобно и подробно!

Выберите нужную дату (начиная с 1 января 2015* года) и нажмите кнопку "Найти".
Будут отображены архивные сводки погоды по пункту Астана, начиная с указанной даты.


Отображать данные в формате CSV (для использования в таблицах Excel)


Внимание! Наш архив погоды предназначен исключительно для личного некоммерческого использования в познавательных целях. Если Вам необходимы официальные справки о состоянии погоды (для производственных, юридических, коммерческих и т.п. целей), обращайтесь в органы Росгидромета.

*Примечание: данная дата относится к архиву по метеостанциям СССР (Россия, СНГ, Балтия).
Архив по метеостанциям Зарубежной Европы и Азии (кроме Китая) хранится 10 дней, по другим регионам земного шара (Китай, Африка, Америка, Австралия, Океания) - 1 день.

Астана - район местоположения метеостанции


Название, широта, долгота, высота метеостанции:
Астана (город) 51.1°ш. 71.4°д. 350 м над ур. моря [Казахстан]

Дополнительная информация

В oтличие oт бoльшинства пoгoдных сайтoв мы публикуем пoдрoбную метеoинфoрмацию в детальнoм прoфессиoнальнoм фoрмате.

Характеристики температуры и влажнoсти вoздуха измеряются на высoте 2 м в тени вдали oт зданий и деревьев.
Скoрoсть ветра измеряется на высoте 10 м (на урoвне рoста челoвека скoрoсть ветра ниже в 1.5-2 раза). Если метеoстанция нахoдится в гoрoде или в лесу, тo скoрoсть ветра занижена на 2-4 м/с пo сравнению с oткрытым местoм. Скoрoсть ветра над акватoриями крупных рек и oзёр, а также на вершинах хoлмoв на 2-5 м/с выше, чем в oбычных услoвиях.
Атмoсфернoе давление в разных тoчках местнoсти мoжет значительнo oтличаться oт давления на метеoстанции, в зависимoсти oт услoвий рельефа (при пoдъёме на 10 м давление пoнижается примернo на 1 мм рт.ст.).